User: anonymous   Login
Location: A O Calhoun Middle School
(33.2198°N, 97.1397°W)
Time: 21:18:48
(UTC+00:00)
Language:

Cosmos 1812 - Orbit

View from above orbital plane
View from above orbital plane
View from above satellite
View from above satellite

Ground track
Ground track

The orbit data is extracted from the following two-line orbital elements,

1 17295U 87003A   22148.44834161  .00004829  00000-0  23890-3 0  9998
2 17295  82.5121 165.2755 0003096  27.8507 332.2892 15.17587026932525
Epoch (UTC): 28 May 2022 10:45:36
Eccentricity: 0.0003096
inclination: 82.5121°
perigee height: 511 km
apogee height: 515 km
right ascension of ascending node: 165.2755°
argument of perigee: 27.8507°
revolutions per day: 15.17587026
mean anomaly at epoch: 332.2892°
orbit number at epoch: 93252

The dashed part of the orbit path shows where the satellite is in the earth's shadow,  

DLR